ONEWEB-0398, 50478

Orbit data source: Space-Track

ONEWEB-0398, 50478 is a payload satellite owned by One Web (NAA) (UK) in LEO that was launched on Mon, 27 Dec 2021 UTC via a SOYUZ-2-1B launch vehicle from the Tyuratam Missile And Space Complex (TTMTR). Payload-class satellites include a variety of spacecraft equipped with specific instruments for various scientific and technological missions. These include communications satellites like Starlink; space stations such as the ISS; scientific satellites like the Hubble; Earth observation satellites from companies like Planet Labs, Umbra, and HawkEye 360; GPS; miniature CubeSats for education and research; and military/defense satellites.

Loading next visibility...
Identifier
50478, 2021-132K
Orbit
LEO
Country
Flag of UKUK
Related business
Manufacturer
One Web
Mission
Operational Commercial Communications
Bus & Motor
ARROW, Unknown motor
Mass
148 kg wet, ~140 kg dry
Launch date (UTC)
2021-12-27 (4 years ago)
Launch vehicle
SOYUZ-2-1B
Launch site
Tyuratam Missile And Space Complex (TTMTR)
Object type
Payload
Rocket body
Debris
Shape & HBR
Trap Box + 2 Pan, 6.7 m
Radar Cross Section
3.464 m², Large (>1 m²)

Expand to show TLE details & history
Last TLE update: 2 days ago

TLE from 2 days ago
0 ONEWEB-0398
1 50478U 21132K   26171.03411131  .00000583  00000-0  16079-2 0  9995
2 50478  87.8891  20.4912 0002002  94.7119 265.4238 13.11415945215989
Epoch: 2026-06-20T00:49Z
TLE epoch observation values (Epoch: 2026-06-20T00:49:07.217Z)
Latitude
0.00004°
Longitude
99.9566°
Altitude
1,220.697 km
Speed
7.244 km/s
True Right ascension
01h 21m 57s
True Declination
0° 00' 00"
Sunlit
Object was in daylight at epoch
Visualization orbit readout
Latitude
Unknown
Longitude
Unknown
Altitude
Unknown
Speed
Unknown
Apparent Right ascension
Unknown
Apparent Declination
Unknown
Sunlit
N/A
Visualization observer readout
Local Sidereal Time
21:34:23
Azimuth
Unknown
Elevation
Unknown
Doppler factor
Unknown
Orbital elements
Apogee altitude
1,216.325 km
Perigee altitude
1,213.285 km
Semi-major axis
7,592.942 km
Eccentricity
0.0002
Inclination
87.8891°
RAAN
20.4912°
Arg. of periapsis
94.7119°
True anomaly
265.40093°
Mean anomaly
265.4238°
Eccentric anomaly
265.41237°
Mean motion
3.28041 °/min
Orbital period
109.74 mins
BSTAR
0.0016079
Loading maneuver chart data...
Computing Atmospheric mass density...
Loading historical data...
Loading historical data...
Loading historical data...
Loading historical data...
Loading historical data...
Loading historical data...
Loading historical data...

Documentation

Showing up to 5 results
|